Regional Weather Roundup
Issued by NWS Portland, ME

Home | Current Version | Previous Version | Text Only | Print | Product List | Glossary On
Versions: 1 2 3 4 5 6 7 8 9 10 11 12 13 14 15 16 17 18 19 20 21 22 23 24 25 26 27 28 29 30 31 32 33 34 35 36 37 38 39 40 41 42 43 44 45 46 47 48 49 50
000
ASUS41 KGYX 231605
RWRGYX
WEATHER ROUNDUP FOR MAINE AND NEW HAMPSHIRE
NATIONAL WEATHER SERVICE GRAY ME
1200 PM EDT SAT AUG 23 2014

MEZ002-005-006-010-012-015-018-020-021-024-026-027-029-231700-
MAINE

CITY           SKY/WX    TMP DP  RH WIND       PRES   REMARKS
PORTLAND       MOSUNNY   70  52  52 NE9       30.15S
SANFORD        CLOUDY    70  55  60 E9        30.16S
BAR HARBOR     PTSUNNY   70  52  52 NE12G18   30.13S
WISCASSET      PTSUNNY   72  54  53 VRB6      30.15S
ROCKLAND       CLOUDY    66  57  72 N3        30.13S
FRYEBURG       CLOUDY    72  58  61 N3        30.16F
LEWISTONAUBURN CLOUDY    66  57  72 N3        30.16S
AUGUSTA        MOSUNNY   71  56  58 NE7       30.15F
WATERVILLE     PTSUNNY   70  57  64 CALM      30.11S
BANGOR         PTSUNNY   73  53  49 NE8       30.14F
GREENVILLE       N/A     68  56  65 N9        30.15S
MILLINOCKET    PTSUNNY   72  55  55 NW3       30.15F
HOULTON        PTSUNNY   73  57  57 W6        30.12F
PRESQUE ISLE   MOSUNNY   72  55  56 N9        30.13F
FRENCHVILLE    MOSUNNY   71  53  52 MISG      30.15F
CARIBOU        SUNNY     74  54  49 VRB6      30.13F
$$

NHZ002-005-008-009-011-012-014-231700-
NEW HAMPSHIRE

CITY           SKY/WX    TMP DP  RH WIND       PRES   REMARKS
PORTSMOUTH     CLOUDY    70  58  65 NE8       30.13F
ROCHESTER      CLOUDY    69  57  65 E5        30.14F
NASHUA         CLOUDY    72  58  61 NE9       30.15S
MANCHESTER     PTSUNNY   71  58  63 NE7       30.13S
CONCORD        CLOUDY    73  56  54 NE7       30.14S
LACONIA        PTSUNNY   70  55  60 E10       30.15R
PLYMOUTH       FAIR      71  64  78 SE3       30.15S
BERLIN         MOSUNNY   69  58  67 CALM      30.17F
WHITEFIELD     PTSUNNY   70  55  59 CALM      30.16F
JAFFREY        CLOUDY    67  56  67 VRB3      30.16F
LEBANON        PTSUNNY   72  59  63 NW7       30.15F
MT WASHINGTON  CLOUDY    45  41  87 NE18        N/A
$$

VTZ005-007-008-231700-
VERMONT

CITY           SKY/WX    TMP DP  RH WIND       PRES   REMARKS
ST JOHNSBURY     N/A     71  55  56 MISG      30.14F
MONTPELIER     MOSUNNY   70  57  63 N7        30.20F
BURLINGTON     MOSUNNY   72  59  63 S5        30.15S
$$

MAZ007-012-024-CTZ003-RIZ002-NYZ038-NYZ072-231700-
SOUTHERN NEW ENGLAND AND NY

CITY           SKY/WX    TMP DP  RH WIND       PRES   REMARKS
BOSTON         PTSUNNY   70  60  70 E12       30.13R
WORCESTER      CLOUDY    66  56  70 NE7       30.15S
NANTUCKET      MOSUNNY   72  61  68 NE17G25   30.07S
PROVIDENCE     PTSUNNY   75  57  53 NE14      30.12S
HARTFORD       PTSUNNY   73  57  57 VRB7      30.11F
ALBANY         CLOUDY    71  59  65 NE7       30.14S
NEW YORK CITY  PTSUNNY   70  60  70 NE13      30.09F
$$

ANZ081-ANZ082-ANZ150-NHZ014-MEZ023>029-231700-
COASTAL MARINE OBSERVATIONS

STATION/POSITION TIME  TEMP    WIND        PRES    WAVE
                       AIR SEA DIR/SP/G            HT/PER
                 (UTC) (F)     (DEG/KT/KT) (MB)    (FT/S)
MATINICUS ROCK   1500           40/  7/  8 1020.1R
PORTLAND WX BUOY 1550   63 62   10/  2/  2 1020.8R   2/ 8
WELLS            1500   66 62   90/  8/ 12 1020.0R
ISLE OF SHOALS   1500   63      40/ 14/ 15 1020.1R
JEFFREYS LEDGE   1521      66                N/A     4/ 5
CASHES LEDGE BUO 1550   63 66              1019.4S   3/ 5
$$

.............KEY..............
   WCI - WIND CHILL
   TC  - TEMPERATURE IN CELSIUS
   VSB - VISIBILITY IN MILES
   HX  - HEAT INDEX
   FAIR- INDICATES FEW OR NO CLOUDS BELOW 12,000 FT, WITH NO
         SIGNIFICANT WEATHER AND/OR OBSTRUCTIONS TO VISIBILITY.





USA.gov is the U.S. government's official web portal to all federal, state and local government web resources and services.